Location: Austin
(30.3000°N, 97.7500°W)
Time: 06:16:28
(UTC-05:00)

Cosmos 1092 Rocket - Pass Details

Date: 16 June 2025
Orbit: 954 x 993 km, 83.0° (Epoch: 07 July)

Event Time Altitude Azimuth Distance (km) Brightness Sun altitude
Exits shadow 03:04:58 71° 64° (ENE) 1,036 4.1 -31.9°
Drops below altitude 10° 03:10:52 10° 10° (N) 2,748 7.2 -31.3°
Sets 03:13:25 0° 9° (N) 3,704 8.0 -31.1°
